"Pseudo-MPEC" for C3ZPHU2

Created 2020 Nov 30 16:07:05 UT using Find_Orb

Click here for an explanation of pseudo-MPECs

 
 Astrometry: 
     C3ZPHU2  C2020 11 20.22515105 25 39.58 +53 22 03.6    ~BK6M 21.61GVNEOCPG96
     C3ZPHU2  C2020 11 20.23038605 25 38.83 +53 22 10.2    ~BK6M 21.24GVNEOCPG96
     C3ZPHU2  C2020 11 20.23563105 25 38.02 +53 22 17.1    ~BK6M 21.09GVNEOCPG96
     C3ZPHU2  C2020 11 20.24088305 25 37.22 +53 22 23.2    ~BK6M 21.07GVNEOCPG96
     C3ZPHU2 KC2020 11 20.42874005 25 09.92 +53 26 25.0    ~BKB7 21.52GVNEOCPI52
     C3ZPHU2 KC2020 11 20.43294105 25 09.32 +53 26 30.9    ~BKB7       VNEOCPI52
     C3ZPHU2 KC2020 11 20.43714005 25 08.77 +53 26 36.1    ~BKB7       VNEOCPI52
     C3ZPHU2 1C2020 11 20.96122 05 23 52.87 +53 37 43.1    ~BL07 21.1 VVNEOCP033
     C3ZPHU2 1C2020 11 20.96481 05 23 52.35 +53 37 47.9    ~BL07 21.9 VVNEOCP033
     C3ZPHU2 1C2020 11 20.96840 05 23 51.82 +53 37 52.5    ~BL07 21.6 VVNEOCP033
     C3ZPHU2 KC2020 11 21.21637705 23 15.67 +53 43 07.5    ~BL5b 20.84GVNEOCPV06
     C3ZPHU2 KC2020 11 21.21876705 23 15.28 +53 43 10.5    ~BL5b 21.65GVNEOCPV06
     C3ZPHU2 KC2020 11 21.22116005 23 14.98 +53 43 13.2    ~BL5b       VNEOCPV06
     C3ZPHU2 KC2020 11 22.16630505 20 54.07 +54 03 01.6    ~BM4M       VNEOCPV06
     C3ZPHU2 KC2020 11 22.16972405 20 53.60 +54 03 05.9    ~BM4M 21.05GVNEOCPV06
     C3ZPHU2 KC2020 11 22.17314105 20 53.04 +54 03 09.6    ~BM4M 21.23GVNEOCPV06
     C3ZPHU2 IC2020 11 23ZPRZ?637Weu[(?!K?HHjYr1Astrometryd=)`fet=qU6ahMdy.)tL01
     C3ZPHU2 IC2020 11 23C1ny\3!^$ZWiDtr^a]3X.hnp0vZd^c^[N,Ze@6Ixpgoredacted;L01
     C3ZPHU2 KC2020 11 23U_-pw@(+bvclickUMLi7d,O[\ZFVpoThereAPAj+w!Wr)c4Yr;`bL01
     C3ZPHU2 KC2020 11 23.32186105 17 56.86 +54 26 50.7    ~BN8M 21.31GVNEOCPI52
     C3ZPHU2 KC2020 11 23.32646705 17 56.07 +54 26 56.2    ~BN8M 21.10GVNEOCPI52
     C3ZPHU2 KC2020 11 23.33107105 17 55.42 +54 27 01.7    ~BN8M 20.98GVNEOCPI52
     C3ZPHU2 KC2020 11 24.42609105 15 02.57 +54 49 08.5    ~BOCb 20.14GVNEOCPI52
     C3ZPHU2 KC2020 11 24.43034305 15 01.84 +54 49 13.7    ~BOCb 21.15GVNEOCPI52
     C3ZPHU2 KC2020 11 24.43885105 15 00.76 +54 49 22.0    ~BOCb       VNEOCPI52
     C3ZPHU2 KC2020 11 26R$H\$)r9)NcS(*)IN4)LiaxL$2_P(y8Z$;p\Dhu(p_[xCd!rR+xuL07
     C3ZPHU2 KC2020 11 26FP!$`TforD:mY.OT,rP4hiIAfgB8?explanation'jnM@oQ]0,'JL07
     C3ZPHU2 KC2020 11 26.22249105 10 09.84 +55 24 24.1    ~BQ5q       VNEOCPI52
     C3ZPHU2 KC2020 11 26.22585505 10 09.08 +55 24 30.3    ~BQ5q       VNEOCPI52
     C3ZPHU2 KC2020 11 27.25643105 07 15.35 +55 44 07.7    ~BR6b       VNEOCPI52
     C3ZPHU2 KC2020 11 27.26008805 07 14.91 +55 44 11.4    ~BR6b 21.14GVNEOCPI52
     C3ZPHU2 KC2020 11 28.22756205 04 28.39 +56 02 12.0    ~BS67       VNEOCPI52
     C3ZPHU2 KC2020 11 28.23186105 04 27.67 +56 02 17.0    ~BS67 21.53GVNEOCPI52

Station data:
(033) Karl Schwarzschild Observatory, Tautenburg  (N50.980140 E11.711240)
   Germany. 1.3-m Schmidt.
(G96) Mt. Lemmon Survey  (N32.442754 W110.788720)  US/Arizona.  Observers T.
   A. Pruyne, B. M. Africano, E. J. Christensen, G. A. Farneth, D. C. Fuls,
   A. R. Gibbs, A. D. Grauer, H. Gröller, J. A. Johnson, R. A. Kowalski, S.
   M. Larson, G. J. Leonard, D. Rankin, R. L. Seaman, F. C. Shelly. 1.5-m
   reflector + 10K CCD.
(I52) Steward Observatory, Mt. Lemmon Station  (N32.442547 W110.788920)
   US/Arizona.  Observers T. A. Pruyne, B. M. Africano, E. J. Christensen, G.
   A. Farneth, D. C. Fuls, A. R. Gibbs, A. D. Grauer, H. Gröller, J. A.
   Johnson, R. A. Kowalski, S. M. Larson, G. J. Leonard, D. Rankin, R. L.
   Seaman, F. C. Shelly. 1.0-m reflector + CCD.
(L01) Višnjan Observatory, Tičan  (N45.290900 E13.749300)  Croatia.
   Observers K. Korlević, E. Pettarin. Measurer E. Pettarin. 1.0-m f/2.9
   reflector + CCD.
(L07) Osservatorio Salvatore di Giacomo, Agerola  (N40.623927 E14.564060)
   Italy.
(V06) Catalina Sky Survey-Kuiper  (N32.416847 W110.732550)  US/Arizona.
   Observers T. A. Pruyne, B. M. Africano, E. J. Christensen, G. A. Farneth,
   D. C. Fuls, A. R. Gibbs, A. D. Grauer, H. Gröller, J. A. Johnson, R. A.
   Kowalski, S. M. Larson, G. J. Leonard, D. Rankin, R. L. Seaman, F. C.
   Shelly. 1.55-m reflector + CCD.

Orbital elements:  C3ZPHU2
   Perihelion 2020 Dec 1.905664 +/- 1.14 TT = 21:44:09 (JD 2459185.405664)
Epoch 2020 Nov 28.0 TT = JDT 2459181.5                        AutoNEOCP
M 359.99918198 +/- 0.0009           (J2000 ecliptic)
n   0.00020944 +/- 0.000507         Peri.   24.87458 +/- 0.25
a 280.818540 +/- 447                Node    75.46006 +/- 0.10
e   0.9880376 +/- 0.0193            Incl.   88.48172 +/- 0.21
P4705.86                   H 16.1   G  0.15   U  7.6  
q 3.35925853 +/- 0.00806    Q 558.277822 +/- 414
From 33 observations 2020 Nov. 20-28; mean residual 0".56
Residuals in arcseconds: 
201120 G96  .42+  .12+    201121 V06  .23-  .10+    201124 I52  .14+  .06+    
201120 G96  .47+  .06-    201121 V06  .26+  .25-    201124 I52  .23-  .19+    
201120 G96  .01+  .05+    201122 V06  .56-  .80+    201124 I52  2.3+  1.6-    
201120 G96  .35-  .65-    201122 V06  .13-  .79+    201126 L07  .53+  .40-    
201120 I52  .04-  .23-    201122 V06  .50-  .18+    201126 L07  .77+  .35+    
201120 I52  .08+  .31+    201123 L01  .55-  .21+    201126 I52  .48+  .78-    
201120 I52  .64+  .16+    201123 L01  .32-  .31-    201126 I52  1.2-  1.5+    
201120 033  .32-  .31-    201123 L01  .22-  .04-    201127 I52  1.4-  .23+    
201120 033  .23-  .08-    201123 I52  .12+  .17+    201127 I52  .22+  .23-    
201120 033  .23-  .06-    201123 I52  .44-  .02+    201128 I52  .18-  .19-    
201121 V06  .09+  .16+    201123 I52  .22+  .12-    201128 I52  .12+  .03+    

Ephemerides (geocentric):
Date (UTC) HH   RA              Dec         delta   r     elong  mag " sig PA
---- -- -- --  -------------   -----------  ------ ------ -----  --- ---- ---
2020 11 30 16  04 57 13.975   +56 45 40.27  2.5069 3.3593 144.6 21.4 .838  33
2020 11 30 17  04 57 06.386   +56 46 23.34  2.5069 3.3593 144.6 21.4 .850  33
2020 11 30 18  04 56 58.791   +56 47 06.35  2.5069 3.3593 144.6 21.4 .862  33
2020 11 30 19  04 56 51.190   +56 47 49.31  2.5068 3.3593 144.6 21.4 .874  32
2020 11 30 20  04 56 43.584   +56 48 32.22  2.5068 3.3593 144.6 21.4 .886  32
2020 11 30 21  04 56 35.973   +56 49 15.07  2.5068 3.3593 144.6 21.4 .898  32
2020 11 30 22  04 56 28.355   +56 49 57.88  2.5068 3.3593 144.6 21.4 .911  32
2020 11 30 23  04 56 20.733   +56 50 40.63  2.5068 3.3593 144.6 21.4 .923  32
2020 12 01 00  04 56 13.105   +56 51 23.33  2.5068 3.3593 144.6 21.4 .936  32
2020 12 01 01  04 56 05.471   +56 52 05.97  2.5067 3.3593 144.6 21.4 .948  32
2020 12 01 02  04 55 57.832   +56 52 48.57  2.5067 3.3593 144.6 21.4 .961  32
2020 12 01 03  04 55 50.187   +56 53 31.11  2.5067 3.3593 144.6 21.4 .974  32
2020 12 01 04  04 55 42.537   +56 54 13.59  2.5067 3.3593 144.6 21.4 .987  32
2020 12 01 05  04 55 34.881   +56 54 56.03  2.5067 3.3593 144.6 21.4 1.00  32
2020 12 01 06  04 55 27.220   +56 55 38.41  2.5067 3.3593 144.6 21.4 1.01  32
2020 12 01 07  04 55 19.554   +56 56 20.74  2.5067 3.3593 144.6 21.4 1.03  32
2020 12 01 08  04 55 11.882   +56 57 03.02  2.5067 3.3593 144.6 21.4 1.04  31
2020 12 01 09  04 55 04.205   +56 57 45.24  2.5066 3.3593 144.6 21.4 1.05  31
2020 12 01 10  04 54 56.522   +56 58 27.41  2.5066 3.3593 144.6 21.4 1.06  31
2020 12 01 11  04 54 48.834   +56 59 09.53  2.5066 3.3593 144.6 21.4 1.08  31
2020 12 01 12  04 54 41.140   +56 59 51.59  2.5066 3.3593 144.6 21.4 1.09  31
2020 12 01 13  04 54 33.442   +57 00 33.60  2.5066 3.3593 144.6 21.4 1.10  31
2020 12 01 14  04 54 25.737   +57 01 15.56  2.5066 3.3593 144.6 21.4 1.12  31
2020 12 01 15  04 54 18.028   +57 01 57.46  2.5066 3.3593 144.6 21.4 1.13  31
2020 12 01 16  04 54 10.313   +57 02 39.31  2.5066 3.3593 144.6 21.4 1.15  31
2020 12 01 17  04 54 02.593   +57 03 21.11  2.5066 3.3593 144.6 21.4 1.16  31
2020 12 01 18  04 53 54.867   +57 04 02.85  2.5066 3.3593 144.6 21.4 1.17  31
2020 12 01 19  04 53 47.136   +57 04 44.54  2.5066 3.3593 144.6 21.4 1.19  31
2020 12 01 20  04 53 39.400   +57 05 26.17  2.5066 3.3593 144.6 21.4 1.20  31
2020 12 01 21  04 53 31.659   +57 06 07.75  2.5066 3.3593 144.6 21.4 1.21  31
2020 12 01 22  04 53 23.912   +57 06 49.28  2.5066 3.3593 144.6 21.4 1.23  30
2020 12 01 23  04 53 16.160   +57 07 30.75  2.5066 3.3593 144.6 21.4 1.24  30
2020 12 02 00  04 53 08.403   +57 08 12.17  2.5066 3.3593 144.6 21.4 1.26  30
2020 12 02 01  04 53 00.641   +57 08 53.53  2.5066 3.3593 144.6 21.4 1.27  30
2020 12 02 02  04 52 52.873   +57 09 34.84  2.5066 3.3593 144.6 21.4 1.29  30
2020 12 02 03  04 52 45.100   +57 10 16.10  2.5066 3.3593 144.6 21.4 1.30  30
2020 12 02 04  04 52 37.322   +57 10 57.30  2.5066 3.3593 144.6 21.4 1.31  30
2020 12 02 05  04 52 29.539   +57 11 38.45  2.5066 3.3593 144.6 21.4 1.33  30
2020 12 02 06  04 52 21.751   +57 12 19.54  2.5066 3.3593 144.6 21.4 1.34  30
2020 12 02 07  04 52 13.957   +57 13 00.58  2.5066 3.3593 144.6 21.4 1.36  30
2020 12 02 08  04 52 06.158   +57 13 41.56  2.5066 3.3593 144.6 21.4 1.37  30
2020 12 02 09  04 51 58.355   +57 14 22.49  2.5066 3.3593 144.6 21.4 1.39  30
2020 12 02 10  04 51 50.546   +57 15 03.36  2.5066 3.3593 144.6 21.4 1.40  30
2020 12 02 11  04 51 42.731   +57 15 44.18  2.5066 3.3593 144.6 21.4 1.42  29
2020 12 02 12  04 51 34.912   +57 16 24.95  2.5067 3.3593 144.6 21.4 1.43  29
2020 12 02 13  04 51 27.088   +57 17 05.66  2.5067 3.3593 144.6 21.4 1.45  29
2020 12 02 14  04 51 19.259   +57 17 46.31  2.5067 3.3593 144.6 21.4 1.46  29
2020 12 02 15  04 51 11.424   +57 18 26.91  2.5067 3.3593 144.6 21.4 1.48  29